owner,sensor,date,latitude,longitude,vertical_datum,sea_water_practical_salinity,qcFlag 
SCCF RECON,ioos:station:SCCF:56:1,2016-04-01T00:00:00Z,26.4645,-82.1044,1.94,28.12,1111122 
SCCF RECON,ioos:station:SCCF:56:1,2016-04-01T01:00:00Z,26.4645,-82.1044,1.89,27.36,1111122 
SCCF RECON,ioos:station:SCCF:56:1,2016-04-01T02:00:00Z,26.4645,-82.1044,1.825,27.29,1111122 
SCCF RECON,ioos:station:SCCF:56:1,2016-04-01T03:00:00Z,26.4645,-82.1044,1.73,27.35,1111122 
SCCF RECON,ioos:station:SCCF:56:1,2016-04-01T04:00:00Z,26.4645,-82.1044,1.633,27.59,1111122 
SCCF RECON,ioos:station:SCCF:56:1,2016-04-01T05:00:00Z,26.4645,-82.1044,1.558,27.78,1111122 
SCCF RECON,ioos:station:SCCF:56:1,2016-04-01T06:00:00Z,26.4645,-82.1044,1.47,27.99,1111122 
SCCF RECON,ioos:station:SCCF:56:1,2016-04-01T07:00:00Z,26.4645,-82.1044,1.4,28.15,1111122 
SCCF RECON,ioos:station:SCCF:56:1,2016-04-01T08:00:00Z,26.4645,-82.1044,1.403,28.23,1111122 
SCCF RECON,ioos:station:SCCF:56:1,2016-04-01T09:00:00Z,26.4645,-82.1044,1.48,28.19,1111122 
SCCF RECON,ioos:station:SCCF:56:1,2016-04-01T10:00:00Z,26.4645,-82.1044,1.59,29.6,1111122 
SCCF RECON,ioos:station:SCCF:56:1,2016-04-01T11:00:00Z,26.4645,-82.1044,1.672,29.8,1111122 
SCCF RECON,ioos:station:SCCF:56:1,2016-04-01T12:00:00Z,26.4645,-82.1044,1.744,30.1,1111122 
SCCF RECON,ioos:station:SCCF:56:1,2016-04-01T13:00:00Z,26.4645,-82.1044,1.813,29.88,1111122 
SCCF RECON,ioos:station:SCCF:56:1,2016-04-01T14:00:00Z,26.4645,-82.1044,1.84,29.75,1111122 
SCCF RECON,ioos:station:SCCF:56:1,2016-04-01T15:00:00Z,26.4645,-82.1044,1.83,29.78,1111122 
SCCF RECON,ioos:station:SCCF:56:1,2016-04-01T16:00:00Z,26.4645,-82.1044,1.788,29.55,1111122 
SCCF RECON,ioos:station:SCCF:56:1,2016-04-01T17:00:00Z,26.4645,-82.1044,1.74,29.72,1111122 
SCCF RECON,ioos:station:SCCF:56:1,2016-04-01T18:00:00Z,26.4645,-82.1044,1.74,29.61,1111122 
SCCF RECON,ioos:station:SCCF:56:1,2016-04-01T19:00:00Z,26.4645,-82.1044,1.74,29.67,1111122 
SCCF RECON,ioos:station:SCCF:56:1,2016-04-01T20:00:00Z,26.4645,-82.1044,1.74,29.88,1111122 
SCCF RECON,ioos:station:SCCF:56:1,2016-04-01T21:00:00Z,26.4645,-82.1044,1.791,30.2,1111122 
SCCF RECON,ioos:station:SCCF:56:1,2016-04-01T22:00:00Z,26.4645,-82.1044,1.836,30.46,1111122 
SCCF RECON,ioos:station:SCCF:56:1,2016-04-01T23:00:00Z,26.4645,-82.1044,1.851,30.63,1111122 
SCCF RECON,ioos:station:SCCF:56:1,2016-04-02T00:00:00Z,26.4645,-82.1044,1.87,30.86,1111122 
SCCF RECON,ioos:station:SCCF:56:1,2016-04-02T01:00:00Z,26.4645,-82.1044,1.87,31.15,1111122 
SCCF RECON,ioos:station:SCCF:56:1,2016-04-02T02:00:00Z,26.4645,-82.1044,1.86,31.14,1111122 
SCCF RECON,ioos:station:SCCF:56:1,2016-04-02T03:00:00Z,26.4645,-82.1044,1.83,30.99,1111122 
SCCF RECON,ioos:station:SCCF:56:1,2016-04-02T04:00:00Z,26.4645,-82.1044,1.75,30.23,1111122 
SCCF RECON,ioos:station:SCCF:56:1,2016-04-02T05:00:00Z,26.4645,-82.1044,1.622,30.04,1111122 
SCCF RECON,ioos:station:SCCF:56:1,2016-04-02T06:00:00Z,26.4645,-82.1044,1.5,29.63,1111122 
SCCF RECON,ioos:station:SCCF:56:1,2016-04-02T07:00:00Z,26.4645,-82.1044,1.38,29.43,1111122 
SCCF RECON,ioos:station:SCCF:56:1,2016-04-02T08:00:00Z,26.4645,-82.1044,1.33,29.43,1111122 
SCCF RECON,ioos:station:SCCF:56:1,2016-04-02T09:00:00Z,26.4645,-82.1044,1.341,29.42,1111122 
SCCF RECON,ioos:station:SCCF:56:1,2016-04-02T10:00:00Z,26.4645,-82.1044,1.46,30.11,1111122 
SCCF RECON,ioos:station:SCCF:56:1,2016-04-02T11:00:00Z,26.4645,-82.1044,1.6,32.27,1111122 
SCCF RECON,ioos:station:SCCF:56:1,2016-04-02T12:00:00Z,26.4645,-82.1044,1.69,32.29,1111122 
SCCF RECON,ioos:station:SCCF:56:1,2016-04-02T13:00:00Z,26.4645,-82.1044,1.782,32.22,1111122 
SCCF RECON,ioos:station:SCCF:56:1,2016-04-02T14:00:00Z,26.4645,-82.1044,1.85,32.26,1111122 
SCCF RECON,ioos:station:SCCF:56:1,2016-04-02T15:00:00Z,26.4645,-82.1044,1.882,32.29,1111122 
SCCF RECON,ioos:station:SCCF:56:1,2016-04-02T16:00:00Z,26.4645,-82.1044,1.905,32.19,1111122 
SCCF RECON,ioos:station:SCCF:56:1,2016-04-02T17:00:00Z,26.4645,-82.1044,1.865,32.06,1111122 
SCCF RECON,ioos:station:SCCF:56:1,2016-04-02T18:00:00Z,26.4645,-82.1044,1.741,31.93,1111122 
SCCF RECON,ioos:station:SCCF:56:1,2016-04-02T19:00:00Z,26.4645,-82.1044,1.654,31.86,1111122 
SCCF RECON,ioos:station:SCCF:56:1,2016-04-02T20:00:00Z,26.4645,-82.1044,1.64,31.69,1111122 
SCCF RECON,ioos:station:SCCF:56:1,2016-04-02T21:00:00Z,26.4645,-82.1044,1.631,31.61,1111122 
SCCF RECON,ioos:station:SCCF:56:1,2016-04-02T22:00:00Z,26.4645,-82.1044,1.66,31.66,1111122 
SCCF RECON,ioos:station:SCCF:56:1,2016-04-02T23:00:00Z,26.4645,-82.1044,1.75,32.08,1111122 
SCCF RECON,ioos:station:SCCF:56:1,2016-04-03T00:00:00Z,26.4645,-82.1044,1.851,32.77,1111122 
SCCF RECON,ioos:station:SCCF:56:1,2016-04-03T01:00:00Z,26.4645,-82.1044,1.9,32.65,1111122 
SCCF RECON,ioos:station:SCCF:56:1,2016-04-03T02:00:00Z,26.4645,-82.1044,1.92,32.3,1111122 
SCCF RECON,ioos:station:SCCF:56:1,2016-04-03T03:00:00Z,26.4645,-82.1044,1.84,32.52,1111122 
SCCF RECON,ioos:station:SCCF:56:1,2016-04-03T04:00:00Z,26.4645,-82.1044,1.734,31.91,1111122 
SCCF RECON,ioos:station:SCCF:56:1,2016-04-03T05:00:00Z,26.4645,-82.1044,1.649,31.39,1111122 
SCCF RECON,ioos:station:SCCF:56:1,2016-04-03T06:00:00Z,26.4645,-82.1044,1.573,30.97,1111122 
SCCF RECON,ioos:station:SCCF:56:1,2016-04-03T07:00:00Z,26.4645,-82.1044,1.507,30.56,1111122 
SCCF RECON,ioos:station:SCCF:56:1,2016-04-03T08:00:00Z,26.4645,-82.1044,1.41,30.34,1111122 
SCCF RECON,ioos:station:SCCF:56:1,2016-04-03T09:00:00Z,26.4645,-82.1044,1.33,30.15,1111122 
SCCF RECON,ioos:station:SCCF:56:1,2016-04-03T10:00:00Z,26.4645,-82.1044,1.291,30.01,1111122 
SCCF RECON,ioos:station:SCCF:56:1,2016-04-03T11:00:00Z,26.4645,-82.1044,1.322,30.04,1111122 
SCCF RECON,ioos:station:SCCF:56:1,2016-04-03T12:00:00Z,26.4645,-82.1044,1.38,30.17,1111122 
SCCF RECON,ioos:station:SCCF:56:1,2016-04-03T13:00:00Z,26.4645,-82.1044,1.481,31.05,1111122 
SCCF RECON,ioos:station:SCCF:56:1,2016-04-03T14:00:00Z,26.4645,-82.1044,1.578,31.06,1111122 
SCCF RECON,ioos:station:SCCF:56:1,2016-04-03T15:00:00Z,26.4645,-82.1044,1.625,31.26,1111122 
SCCF RECON,ioos:station:SCCF:56:1,2016-04-03T16:00:00Z,26.4645,-82.1044,1.689,31.46,1111122 
SCCF RECON,ioos:station:SCCF:56:1,2016-04-03T17:00:00Z,26.4645,-82.1044,1.699,31.38,1111122 
SCCF RECON,ioos:station:SCCF:56:1,2016-04-03T18:00:00Z,26.4645,-82.1044,1.61,31.33,1111122 
SCCF RECON,ioos:station:SCCF:56:1,2016-04-03T19:00:00Z,26.4645,-82.1044,1.538,31.07,1111122 
SCCF RECON,ioos:station:SCCF:56:1,2016-04-03T20:00:00Z,26.4645,-82.1044,1.47,30.92,1111122 
SCCF RECON,ioos:station:SCCF:56:1,2016-04-03T21:00:00Z,26.4645,-82.1044,1.44,30.68,1111122 
SCCF RECON,ioos:station:SCCF:56:1,2016-04-03T22:00:00Z,26.4645,-82.1044,1.5,30.87,1111122 
SCCF RECON,ioos:station:SCCF:56:1,2016-04-03T23:00:00Z,26.4645,-82.1044,1.598,31.24,1111122 
SCCF RECON,ioos:station:SCCF:56:1,2016-04-04T00:00:00Z,26.4645,-82.1044,1.71,31.2,1111122 
SCCF RECON,ioos:station:SCCF:56:1,2016-04-04T01:00:00Z,26.4645,-82.1044,1.81,31.36,1111122 
SCCF RECON,ioos:station:SCCF:56:1,2016-04-04T02:00:00Z,26.4645,-82.1044,1.9,31.54,1111122 
SCCF RECON,ioos:station:SCCF:56:1,2016-04-04T03:00:00Z,26.4645,-82.1044,1.946,31.8,1111122 
SCCF RECON,ioos:station:SCCF:56:1,2016-04-04T04:00:00Z,26.4645,-82.1044,1.932,31.42,1111122 
SCCF RECON,ioos:station:SCCF:56:1,2016-04-04T05:00:00Z,26.4645,-82.1044,1.843,31.25,1111122 
SCCF RECON,ioos:station:SCCF:56:1,2016-04-04T06:00:00Z,26.4645,-82.1044,1.717,31.41,1111122 
SCCF RECON,ioos:station:SCCF:56:1,2016-04-04T07:00:00Z,26.4645,-82.1044,1.57,31.18,1111122 
SCCF RECON,ioos:station:SCCF:56:1,2016-04-04T08:00:00Z,26.4645,-82.1044,1.458,30.97,1111122 
SCCF RECON,ioos:station:SCCF:56:1,2016-04-04T09:00:00Z,26.4645,-82.1044,1.36,30.9,1111122 
SCCF RECON,ioos:station:SCCF:56:1,2016-04-04T10:00:00Z,26.4645,-82.1044,1.3,30.84,1111122 
SCCF RECON,ioos:station:SCCF:56:1,2016-04-04T11:00:00Z,26.4645,-82.1044,1.32,30.74,1111122 
SCCF RECON,ioos:station:SCCF:56:1,2016-04-04T12:00:00Z,26.4645,-82.1044,1.43,29.93,1111122 
SCCF RECON,ioos:station:SCCF:56:1,2016-04-04T13:00:00Z,26.4645,-82.1044,1.58,29.75,1111122 
SCCF RECON,ioos:station:SCCF:56:1,2016-04-04T14:00:00Z,26.4645,-82.1044,1.71,29.53,1111122 
SCCF RECON,ioos:station:SCCF:56:1,2016-04-04T15:00:00Z,26.4645,-82.1044,1.82,29.7,1111122 
SCCF RECON,ioos:station:SCCF:56:1,2016-04-04T16:00:00Z,26.4645,-82.1044,1.9,29.92,1111122 
SCCF RECON,ioos:station:SCCF:56:1,2016-04-04T17:00:00Z,26.4645,-82.1044,1.89,29.96,1111122 
SCCF RECON,ioos:station:SCCF:56:1,2016-04-04T18:00:00Z,26.4645,-82.1044,1.792,29.84,1111122 
SCCF RECON,ioos:station:SCCF:56:1,2016-04-04T19:00:00Z,26.4645,-82.1044,1.66,29.88,1111122 
SCCF RECON,ioos:station:SCCF:56:1,2016-04-04T20:00:00Z,26.4645,-82.1044,1.53,29.91,1111122 
SCCF RECON,ioos:station:SCCF:56:1,2016-04-04T21:00:00Z,26.4645,-82.1044,1.44,29.95,1111122 
SCCF RECON,ioos:station:SCCF:56:1,2016-04-04T22:00:00Z,26.4645,-82.1044,1.402,30.19,1111122 
SCCF RECON,ioos:station:SCCF:56:1,2016-04-04T23:00:00Z,26.4645,-82.1044,1.45,30.16,1111122 
SCCF RECON,ioos:station:SCCF:56:1,2016-04-05T00:00:00Z,26.4645,-82.1044,1.575,30.13,1111122 
SCCF RECON,ioos:station:SCCF:56:1,2016-04-05T01:00:00Z,26.4645,-82.1044,1.728,30.27,1111122 
SCCF RECON,ioos:station:SCCF:56:1,2016-04-05T02:00:00Z,26.4645,-82.1044,1.831,30.39,1111122 
SCCF RECON,ioos:station:SCCF:56:1,2016-04-05T03:00:00Z,26.4645,-82.1044,1.93,30.43,1111122 
SCCF RECON,ioos:station:SCCF:56:1,2016-04-05T04:00:00Z,26.4645,-82.1044,1.978,30.62,1111122 
SCCF RECON,ioos:station:SCCF:56:1,2016-04-05T05:00:00Z,26.4645,-82.1044,1.96,30.57,1111122 
SCCF RECON,ioos:station:SCCF:56:1,2016-04-05T06:00:00Z,26.4645,-82.1044,1.85,30.44,1111122 
SCCF RECON,ioos:station:SCCF:56:1,2016-04-05T07:00:00Z,26.4645,-82.1044,1.7,30.42,1111122 
SCCF RECON,ioos:station:SCCF:56:1,2016-04-05T08:00:00Z,26.4645,-82.1044,1.56,30.38,1111122 
SCCF RECON,ioos:station:SCCF:56:1,2016-04-05T09:00:00Z,26.4645,-82.1044,1.46,30.37,1111122 
SCCF RECON,ioos:station:SCCF:56:1,2016-04-05T10:00:00Z,26.4645,-82.1044,1.357,30.39,1111122 
SCCF RECON,ioos:station:SCCF:56:1,2016-04-05T11:00:00Z,26.4645,-82.1044,1.281,30.4,1111122 
SCCF RECON,ioos:station:SCCF:56:1,2016-04-05T12:00:00Z,26.4645,-82.1044,1.299,30.43,1111122 
SCCF RECON,ioos:station:SCCF:56:1,2016-04-05T13:00:00Z,26.4645,-82.1044,1.441,30.51,1111122 
SCCF RECON,ioos:station:SCCF:56:1,2016-04-05T14:00:00Z,26.4645,-82.1044,1.619,30.69,1111122 
SCCF RECON,ioos:station:SCCF:56:1,2016-04-05T15:00:00Z,26.4645,-82.1044,1.761,30.83,1111122 
SCCF RECON,ioos:station:SCCF:56:1,2016-04-05T16:00:00Z,26.4645,-82.1044,1.882,30.86,1111122 
SCCF RECON,ioos:station:SCCF:56:1,2016-04-05T17:00:00Z,26.4645,-82.1044,1.94,30.82,1111122 
SCCF RECON,ioos:station:SCCF:56:1,2016-04-05T18:00:00Z,26.4645,-82.1044,1.907,30.72,1111122 
SCCF RECON,ioos:station:SCCF:56:1,2016-04-05T19:00:00Z,26.4645,-82.1044,1.76,30.66,1111122 
SCCF RECON,ioos:station:SCCF:56:1,2016-04-05T20:00:00Z,26.4645,-82.1044,1.63,30.63,1111122 
SCCF RECON,ioos:station:SCCF:56:1,2016-04-05T21:00:00Z,26.4645,-82.1044,1.51,30.65,1111122 
SCCF RECON,ioos:station:SCCF:56:1,2016-04-05T22:00:00Z,26.4645,-82.1044,1.413,30.66,1111122 
SCCF RECON,ioos:station:SCCF:56:1,2016-04-05T23:00:00Z,26.4645,-82.1044,1.379,30.66,1111122 
SCCF RECON,ioos:station:SCCF:56:1,2016-04-06T00:00:00Z,26.4645,-82.1044,1.438,30.67,1111122 
SCCF RECON,ioos:station:SCCF:56:1,2016-04-06T01:00:00Z,26.4645,-82.1044,1.58,30.91,1111122 
SCCF RECON,ioos:station:SCCF:56:1,2016-04-06T02:00:00Z,26.4645,-82.1044,1.762,30.97,1111122 
SCCF RECON,ioos:station:SCCF:56:1,2016-04-06T03:00:00Z,26.4645,-82.1044,1.884,30.86,1111122 
SCCF RECON,ioos:station:SCCF:56:1,2016-04-06T04:00:00Z,26.4645,-82.1044,1.989,30.81,1111122 
SCCF RECON,ioos:station:SCCF:56:1,2016-04-06T05:00:00Z,26.4645,-82.1044,2.02,30.67,1111122 
SCCF RECON,ioos:station:SCCF:56:1,2016-04-06T06:00:00Z,26.4645,-82.1044,1.975,30.71,1111122 
SCCF RECON,ioos:station:SCCF:56:1,2016-04-06T07:00:00Z,26.4645,-82.1044,1.859,30.76,1111122 
SCCF RECON,ioos:station:SCCF:56:1,2016-04-06T08:00:00Z,26.4645,-82.1044,1.709,30.77,1111122 
SCCF RECON,ioos:station:SCCF:56:1,2016-04-06T09:00:00Z,26.4645,-82.1044,1.56,30.78,1111122 
SCCF RECON,ioos:station:SCCF:56:1,2016-04-06T10:00:00Z,26.4645,-82.1044,1.441,30.79,1111122 
SCCF RECON,ioos:station:SCCF:56:1,2016-04-06T11:00:00Z,26.4645,-82.1044,1.341,30.79,1111122 
SCCF RECON,ioos:station:SCCF:56:1,2016-04-06T12:00:00Z,26.4645,-82.1044,1.294,30.8,1111122 
SCCF RECON,ioos:station:SCCF:56:1,2016-04-06T13:00:00Z,26.4645,-82.1044,1.43,30.7,1111122 
SCCF RECON,ioos:station:SCCF:56:1,2016-04-06T14:00:00Z,26.4645,-82.1044,1.614,30.74,1111122 
SCCF RECON,ioos:station:SCCF:56:1,2016-04-06T15:00:00Z,26.4645,-82.1044,1.765,30.69,1111122 
SCCF RECON,ioos:station:SCCF:56:1,2016-04-06T16:00:00Z,26.4645,-82.1044,1.877,30.64,1111122 
SCCF RECON,ioos:station:SCCF:56:1,2016-04-06T17:00:00Z,26.4645,-82.1044,1.956,30.56,1111122 
SCCF RECON,ioos:station:SCCF:56:1,2016-04-06T18:00:00Z,26.4645,-82.1044,1.981,30.53,1111122 
SCCF RECON,ioos:station:SCCF:56:1,2016-04-06T19:00:00Z,26.4645,-82.1044,1.91,30.51,1111122 
SCCF RECON,ioos:station:SCCF:56:1,2016-04-06T20:00:00Z,26.4645,-82.1044,1.772,30.54,1111122 
SCCF RECON,ioos:station:SCCF:56:1,2016-04-06T21:00:00Z,26.4645,-82.1044,1.66,30.6,1111122 
SCCF RECON,ioos:station:SCCF:56:1,2016-04-06T22:00:00Z,26.4645,-82.1044,1.512,30.65,1111122 
SCCF RECON,ioos:station:SCCF:56:1,2016-04-06T23:00:00Z,26.4645,-82.1044,1.391,30.72,1111122 
SCCF RECON,ioos:station:SCCF:56:1,2016-04-07T00:00:00Z,26.4645,-82.1044,1.321,30.76,1111122 
SCCF RECON,ioos:station:SCCF:56:1,2016-04-07T01:00:00Z,26.4645,-82.1044,1.43,30.76,1111122 
SCCF RECON,ioos:station:SCCF:56:1,2016-04-07T02:00:00Z,26.4645,-82.1044,1.616,29.89,1111122 
SCCF RECON,ioos:station:SCCF:56:1,2016-04-07T03:00:00Z,26.4645,-82.1044,1.77,29.57,1111122 
SCCF RECON,ioos:station:SCCF:56:1,2016-04-07T04:00:00Z,26.4645,-82.1044,1.9,29.68,1111122 
SCCF RECON,ioos:station:SCCF:56:1,2016-04-07T05:00:00Z,26.4645,-82.1044,2.03,29.72,1111122 
SCCF RECON,ioos:station:SCCF:56:1,2016-04-07T06:00:00Z,26.4645,-82.1044,2.098,29.69,1111122 
SCCF RECON,ioos:station:SCCF:56:1,2016-04-07T07:00:00Z,26.4645,-82.1044,2.06,29.85,1111122 
SCCF RECON,ioos:station:SCCF:56:1,2016-04-07T08:00:00Z,26.4645,-82.1044,1.921,29.88,1111122 
SCCF RECON,ioos:station:SCCF:56:1,2016-04-07T09:00:00Z,26.4645,-82.1044,1.74,29.96,1111122 
SCCF RECON,ioos:station:SCCF:56:1,2016-04-07T10:00:00Z,26.4645,-82.1044,1.62,30.05,1111122 
SCCF RECON,ioos:station:SCCF:56:1,2016-04-07T11:00:00Z,26.4645,-82.1044,1.52,30.13,1111122 
SCCF RECON,ioos:station:SCCF:56:1,2016-04-07T12:00:00Z,26.4645,-82.1044,1.456,30.22,1111122 
SCCF RECON,ioos:station:SCCF:56:1,2016-04-07T13:00:00Z,26.4645,-82.1044,1.5,30.26,1111122 
SCCF RECON,ioos:station:SCCF:56:1,2016-04-07T14:00:00Z,26.4645,-82.1044,1.68,29.57,1111122 
SCCF RECON,ioos:station:SCCF:56:1,2016-04-07T15:00:00Z,26.4645,-82.1044,1.866,29.44,1111122 
SCCF RECON,ioos:station:SCCF:56:1,2016-04-07T16:00:00Z,26.4645,-82.1044,1.996,29.66,1111122 
SCCF RECON,ioos:station:SCCF:56:1,2016-04-07T17:00:00Z,26.4645,-82.1044,2.074,29.54,1111122 
SCCF RECON,ioos:station:SCCF:56:1,2016-04-07T18:00:00Z,26.4645,-82.1044,2.11,29.26,1111122 
SCCF RECON,ioos:station:SCCF:56:1,2016-04-07T19:00:00Z,26.4645,-82.1044,2.08,29.55,1111122 
SCCF RECON,ioos:station:SCCF:56:1,2016-04-07T20:00:00Z,26.4645,-82.1044,1.942,29.52,1111122 
SCCF RECON,ioos:station:SCCF:56:1,2016-04-07T21:00:00Z,26.4645,-82.1044,1.761,29.7,1111122 
SCCF RECON,ioos:station:SCCF:56:1,2016-04-07T22:00:00Z,26.4645,-82.1044,1.63,29.79,1111122 
SCCF RECON,ioos:station:SCCF:56:1,2016-04-07T23:00:00Z,26.4645,-82.1044,1.499,29.86,1111122 
SCCF RECON,ioos:station:SCCF:56:1,2016-04-08T00:00:00Z,26.4645,-82.1044,1.377,30.0,1111122 
SCCF RECON,ioos:station:SCCF:56:1,2016-04-08T01:00:00Z,26.4645,-82.1044,1.3,30.12,1111122 
SCCF RECON,ioos:station:SCCF:56:1,2016-04-08T02:00:00Z,26.4645,-82.1044,1.39,30.2,1111122 
SCCF RECON,ioos:station:SCCF:56:1,2016-04-08T03:00:00Z,26.4645,-82.1044,1.608,29.83,1111122 
SCCF RECON,ioos:station:SCCF:56:1,2016-04-08T04:00:00Z,26.4645,-82.1044,1.79,29.94,1111122 
SCCF RECON,ioos:station:SCCF:56:1,2016-04-08T05:00:00Z,26.4645,-82.1044,1.93,29.87,1111122 
SCCF RECON,ioos:station:SCCF:56:1,2016-04-08T06:00:00Z,26.4645,-82.1044,2.02,29.75,1111122 
SCCF RECON,ioos:station:SCCF:56:1,2016-04-08T07:00:00Z,26.4645,-82.1044,2.06,29.61,1111122 
SCCF RECON,ioos:station:SCCF:56:1,2016-04-08T08:00:00Z,26.4645,-82.1044,1.99,29.56,1111122 
SCCF RECON,ioos:station:SCCF:56:1,2016-04-08T09:00:00Z,26.4645,-82.1044,1.832,29.82,1111122 
SCCF RECON,ioos:station:SCCF:56:1,2016-04-08T10:00:00Z,26.4645,-82.1044,1.721,29.92,1111122 
SCCF RECON,ioos:station:SCCF:56:1,2016-04-08T11:00:00Z,26.4645,-82.1044,1.62,30.02,1111122 
SCCF RECON,ioos:station:SCCF:56:1,2016-04-08T12:00:00Z,26.4645,-82.1044,1.533,30.08,1111122 
SCCF RECON,ioos:station:SCCF:56:1,2016-04-08T13:00:00Z,26.4645,-82.1044,1.507,30.12,1111122 
SCCF RECON,ioos:station:SCCF:56:1,2016-04-08T14:00:00Z,26.4645,-82.1044,1.61,30.1,1111122 
SCCF RECON,ioos:station:SCCF:56:1,2016-04-08T15:00:00Z,26.4645,-82.1044,1.8,29.66,1111122 
SCCF RECON,ioos:station:SCCF:56:1,2016-04-08T16:00:00Z,26.4645,-82.1044,1.96,29.67,1111122 
SCCF RECON,ioos:station:SCCF:56:1,2016-04-08T17:00:00Z,26.4645,-82.1044,2.08,29.7,1111122 
SCCF RECON,ioos:station:SCCF:56:1,2016-04-08T18:00:00Z,26.4645,-82.1044,2.159,29.69,1111122 
SCCF RECON,ioos:station:SCCF:56:1,2016-04-08T19:00:00Z,26.4645,-82.1044,2.15,29.71,1111122 
SCCF RECON,ioos:station:SCCF:56:1,2016-04-08T20:00:00Z,26.4645,-82.1044,2.055,29.73,1111122 
SCCF RECON,ioos:station:SCCF:56:1,2016-04-08T21:00:00Z,26.4645,-82.1044,1.878,29.81,1111122 
SCCF RECON,ioos:station:SCCF:56:1,2016-04-08T22:00:00Z,26.4645,-82.1044,1.728,29.9,1111122 
SCCF RECON,ioos:station:SCCF:56:1,2016-04-08T23:00:00Z,26.4645,-82.1044,1.578,29.97,1111122 
SCCF RECON,ioos:station:SCCF:56:1,2016-04-09T00:00:00Z,26.4645,-82.1044,1.439,30.04,1111122 
SCCF RECON,ioos:station:SCCF:56:1,2016-04-09T01:00:00Z,26.4645,-82.1044,1.32,30.12,1111122 
SCCF RECON,ioos:station:SCCF:56:1,2016-04-09T02:00:00Z,26.4645,-82.1044,1.25,30.23,1111122 
SCCF RECON,ioos:station:SCCF:56:1,2016-04-09T03:00:00Z,26.4645,-82.1044,1.35,30.27,1111122 
SCCF RECON,ioos:station:SCCF:56:1,2016-04-09T04:00:00Z,26.4645,-82.1044,1.569,29.92,1111122 
SCCF RECON,ioos:station:SCCF:56:1,2016-04-09T05:00:00Z,26.4645,-82.1044,1.74,29.76,1111122 
SCCF RECON,ioos:station:SCCF:56:1,2016-04-09T06:00:00Z,26.4645,-82.1044,1.87,29.8,1111122 
SCCF RECON,ioos:station:SCCF:56:1,2016-04-09T07:00:00Z,26.4645,-82.1044,1.98,29.86,1111122 
SCCF RECON,ioos:station:SCCF:56:1,2016-04-09T08:00:00Z,26.4645,-82.1044,2.028,29.89,1111122 
SCCF RECON,ioos:station:SCCF:56:1,2016-04-09T09:00:00Z,26.4645,-82.1044,1.931,29.82,1111122 
SCCF RECON,ioos:station:SCCF:56:1,2016-04-09T10:00:00Z,26.4645,-82.1044,1.77,29.95,1111122 
SCCF RECON,ioos:station:SCCF:56:1,2016-04-09T11:00:00Z,26.4645,-82.1044,1.652,30.0,1111122 
SCCF RECON,ioos:station:SCCF:56:1,2016-04-09T12:00:00Z,26.4645,-82.1044,1.577,30.07,1111122 
SCCF RECON,ioos:station:SCCF:56:1,2016-04-09T13:00:00Z,26.4645,-82.1044,1.493,30.16,1111122 
SCCF RECON,ioos:station:SCCF:56:1,2016-04-09T14:00:00Z,26.4645,-82.1044,1.446,30.24,1111122 
SCCF RECON,ioos:station:SCCF:56:1,2016-04-09T15:00:00Z,26.4645,-82.1044,1.51,30.19,1111122 
SCCF RECON,ioos:station:SCCF:56:1,2016-04-09T16:00:00Z,26.4645,-82.1044,1.673,30.0,1111122 
SCCF RECON,ioos:station:SCCF:56:1,2016-04-09T17:00:00Z,26.4645,-82.1044,1.839,30.03,1111122 
SCCF RECON,ioos:station:SCCF:56:1,2016-04-09T18:00:00Z,26.4645,-82.1044,1.937,29.98,1111122 
SCCF RECON,ioos:station:SCCF:56:1,2016-04-09T19:00:00Z,26.4645,-82.1044,1.99,29.96,1111122 
SCCF RECON,ioos:station:SCCF:56:1,2016-04-09T20:00:00Z,26.4645,-82.1044,1.97,29.94,1111122 
SCCF RECON,ioos:station:SCCF:56:1,2016-04-09T21:00:00Z,26.4645,-82.1044,1.834,29.95,1111122 
SCCF RECON,ioos:station:SCCF:56:1,2016-04-09T22:00:00Z,26.4645,-82.1044,1.678,30.06,1111122 
SCCF RECON,ioos:station:SCCF:56:1,2016-04-09T23:00:00Z,26.4645,-82.1044,1.55,30.18,1111122 
SCCF RECON,ioos:station:SCCF:56:1,2016-04-10T00:00:00Z,26.4645,-82.1044,1.457,30.28,1111122 
SCCF RECON,ioos:station:SCCF:56:1,2016-04-10T01:00:00Z,26.4645,-82.1044,1.34,30.43,1111122 
SCCF RECON,ioos:station:SCCF:56:1,2016-04-10T02:00:00Z,26.4645,-82.1044,1.239,30.55,1111122 
SCCF RECON,ioos:station:SCCF:56:1,2016-04-10T03:00:00Z,26.4645,-82.1044,1.17,30.72,1111122 
SCCF RECON,ioos:station:SCCF:56:1,2016-04-10T04:00:00Z,26.4645,-82.1044,1.252,30.67,1111122 
SCCF RECON,ioos:station:SCCF:56:1,2016-04-10T05:00:00Z,26.4645,-82.1044,1.446,30.14,1111122 
SCCF RECON,ioos:station:SCCF:56:1,2016-04-10T06:00:00Z,26.4645,-82.1044,1.611,30.25,1111122 
SCCF RECON,ioos:station:SCCF:56:1,2016-04-10T07:00:00Z,26.4645,-82.1044,1.74,30.23,1111122 
SCCF RECON,ioos:station:SCCF:56:1,2016-04-10T08:00:00Z,26.4645,-82.1044,1.83,30.27,1111122 
SCCF RECON,ioos:station:SCCF:56:1,2016-04-10T09:00:00Z,26.4645,-82.1044,1.862,30.2,1111122 
SCCF RECON,ioos:station:SCCF:56:1,2016-04-10T10:00:00Z,26.4645,-82.1044,1.78,30.24,1111122 
SCCF RECON,ioos:station:SCCF:56:1,2016-04-10T11:00:00Z,26.4645,-82.1044,1.67,30.26,1111122 
SCCF RECON,ioos:station:SCCF:56:1,2016-04-10T12:00:00Z,26.4645,-82.1044,1.578,30.33,1111122 
SCCF RECON,ioos:station:SCCF:56:1,2016-04-10T13:00:00Z,26.4645,-82.1044,1.52,30.39,1111122 
SCCF RECON,ioos:station:SCCF:56:1,2016-04-10T14:00:00Z,26.4645,-82.1044,1.486,30.44,1111122 
SCCF RECON,ioos:station:SCCF:56:1,2016-04-10T15:00:00Z,26.4645,-82.1044,1.55,30.21,1111122 
SCCF RECON,ioos:station:SCCF:56:1,2016-04-10T16:00:00Z,26.4645,-82.1044,1.674,28.92,1111122 
SCCF RECON,ioos:station:SCCF:56:1,2016-04-10T17:00:00Z,26.4645,-82.1044,1.83,28.9,1111122 
SCCF RECON,ioos:station:SCCF:56:1,2016-04-10T18:00:00Z,26.4645,-82.1044,1.934,28.98,1111122 
SCCF RECON,ioos:station:SCCF:56:1,2016-04-10T19:00:00Z,26.4645,-82.1044,2.018,29.1,1111122 
SCCF RECON,ioos:station:SCCF:56:1,2016-04-10T20:00:00Z,26.4645,-82.1044,2.09,29.11,1111122 
SCCF RECON,ioos:station:SCCF:56:1,2016-04-10T21:00:00Z,26.4645,-82.1044,2.058,29.23,1111122 
SCCF RECON,ioos:station:SCCF:56:1,2016-04-10T22:00:00Z,26.4645,-82.1044,1.93,29.16,1111122 
SCCF RECON,ioos:station:SCCF:56:1,2016-04-10T23:00:00Z,26.4645,-82.1044,1.78,29.24,1111122 
SCCF RECON,ioos:station:SCCF:56:1,2016-04-11T00:00:00Z,26.4645,-82.1044,1.626,29.46,1111122 
SCCF RECON,ioos:station:SCCF:56:1,2016-04-11T01:00:00Z,26.4645,-82.1044,1.49,29.71,1111122 
SCCF RECON,ioos:station:SCCF:56:1,2016-04-11T02:00:00Z,26.4645,-82.1044,1.38,29.89,1111122 
SCCF RECON,ioos:station:SCCF:56:1,2016-04-11T03:00:00Z,26.4645,-82.1044,1.27,30.2,1111122 
SCCF RECON,ioos:station:SCCF:56:1,2016-04-11T04:00:00Z,26.4645,-82.1044,1.23,30.34,1111122 
SCCF RECON,ioos:station:SCCF:56:1,2016-04-11T05:00:00Z,26.4645,-82.1044,1.357,29.81,1111122 
SCCF RECON,ioos:station:SCCF:56:1,2016-04-11T06:00:00Z,26.4645,-82.1044,1.52,28.95,1111122 
SCCF RECON,ioos:station:SCCF:56:1,2016-04-11T07:00:00Z,26.4645,-82.1044,1.63,28.76,1111122 
SCCF RECON,ioos:station:SCCF:56:1,2016-04-11T08:00:00Z,26.4645,-82.1044,1.72,28.54,1111122 
SCCF RECON,ioos:station:SCCF:56:1,2016-04-11T09:00:00Z,26.4645,-82.1044,1.785,28.53,1111122 
SCCF RECON,ioos:station:SCCF:56:1,2016-04-11T10:00:00Z,26.4645,-82.1044,1.81,28.77,1111122 
SCCF RECON,ioos:station:SCCF:56:1,2016-04-11T11:00:00Z,26.4645,-82.1044,1.8,28.81,1111122 
SCCF RECON,ioos:station:SCCF:56:1,2016-04-11T12:00:00Z,26.4645,-82.1044,1.765,28.77,1111122 
SCCF RECON,ioos:station:SCCF:56:1,2016-04-11T13:00:00Z,26.4645,-82.1044,1.73,28.66,1111122 
SCCF RECON,ioos:station:SCCF:56:1,2016-04-11T14:00:00Z,26.4645,-82.1044,1.72,28.77,1111122 
SCCF RECON,ioos:station:SCCF:56:1,2016-04-11T15:00:00Z,26.4645,-82.1044,1.723,28.76,1111122 
SCCF RECON,ioos:station:SCCF:56:1,2016-04-11T16:00:00Z,26.4645,-82.1044,1.77,28.29,1111122 
SCCF RECON,ioos:station:SCCF:56:1,2016-04-11T17:00:00Z,26.4645,-82.1044,1.86,28.02,1111122 